Location: Cathedral Gorge
(37.8167°N, 114.4167°W)
Time: 10:58:03
(UTC-08:00)

OTV 5 (USA 277) - Visible Passes

Search period start: 13 December 2017 00:00
Search period end: 23 December 2017 00:00
Orbit: 404 x 417 km, 43.0° (Epoch: 07 September)

Date Brightness Start Highest point End Pass type
(mag) Time Alt. Az. Time Alt. Az. Time Alt. Az.
13 Dec ? 16:44:18 10° WNW 16:47:34 44° NNE 16:50:49 10° E visible
13 Dec ? 18:21:40 10° WNW 18:24:22 40° WSW 18:24:22 40° WSW visible
14 Dec ? 17:30:31 10° WNW 17:33:53 70° SSW 17:36:21 17° SE visible
15 Dec ? 18:17:26 10° W 18:19:51 18° SW 18:21:26 14° S visible
16 Dec ? 17:25:57 10° W 17:28:55 28° SSW 17:31:52 10° SSE visible
18 Dec ? 17:22:34 10° WSW 17:23:47 12° SW 17:24:59 10° SSW visible
